| time (UTC) | temp F | wind direction | speed MPH | gust MPH | rain 1hr in | rain 24hr in | rain mn in | humidity % | barometer mb |
| 20260901144926 | 51 | 249 | 1.0 | 2.0 | 0.35 | 0.33 | 0.33 | 99 | 1020.0 |
| 20260901144421 | 52 | 200 | 0.0 | 3.0 | 0.33 | 0.30 | 0.30 | 99 | 1019.9 |
| 20260901143917 | 52 | 240 | 2.0 | 5.0 | 0.14 | 0.26 | 0.26 | 99 | 1019.8 |
| 20260901143413 | 52 | 231 | 0.0 | 4.0 | 0.09 | 0.24 | 0.24 | 99 | 1019.8 |
| 20260901142909 | 52 | 249 | 3.0 | 4.0 | 0.07 | 0.23 | 0.23 | 99 | 1019.5 |
| 20260901142409 | 52 | 148 | 1.0 | 3.0 | 0.12 | 0.22 | 0.22 | 99 | 1019.6 |
| 20260901141904 | 52 | 240 | 0.0 | 0.0 | 0.17 | 0.22 | 0.22 | 99 | 1019.4 |
| 20260901141358 | 52 | 0 | 0.0 | 0.0 | 0.19 | 0.20 | 0.20 | 99 | 1019.4 |
| 20260901140857 | 52 | 0 | 0.0 | 0.0 | 0.14 | 0.18 | 0.18 | 99 | 1019.6 |
| 20260901140356 | 52 | 15 | 0.0 | 1.0 | 0.02 | 0.16 | 0.16 | 99 | 1019.4 |
| 20260901135850 | 52 | 0 | 0.0 | 2.0 | 0.00 | 0.16 | 0.16 | 99 | 1019.5 |
| 20260901135346 | 52 | 40 | 0.0 | 2.0 | 0.00 | 0.16 | 0.16 | 99 | 1019.4 |
| 20260901134841 | 52 | 337 | 0.0 | 1.0 | 0.00 | 0.16 | 0.16 | 99 | 1019.5 |
| 20260901134337 | 52 | 106 | 0.0 | 2.0 | 0.00 | 0.16 | 0.16 | 99 | 1019.5 |
| 20260901133831 | 52 | 23 | 0.0 | 1.0 | 0.02 | 0.16 | 0.16 | 99 | 1019.4 |
| 20260901133330 | 52 | 29 | 2.0 | 3.0 | 0.05 | 0.16 | 0.16 | 99 | 1019.4 |
| 20260901132828 | 52 | 15 | 0.0 | 1.0 | 0.05 | 0.15 | 0.15 | 99 | 1019.4 |
| 20260901132323 | 52 | 7 | 0.0 | 0.0 | 0.02 | 0.15 | 0.15 | 99 | 1019.4 |
| 20260901131818 | 52 | 14 | 0.0 | 2.0 | 0.05 | 0.15 | 0.15 | 99 | 1019.3 |
| 20260901131317 | 52 | 90 | 0.0 | 0.0 | 0.09 | 0.15 | 0.15 | 99 | 1019.4 |
| 20260901130812 | 52 | 90 | 0.0 | 2.0 | 0.09 | 0.14 | 0.14 | 99 | 1019.1 |
| 20260901130307 | 52 | 103 | 2.0 | 2.0 | 0.12 | 0.13 | 0.13 | 99 | 1019.1 |
| 20260901125804 | 52 | 125 | 2.0 | 3.0 | 0.09 | 0.12 | 0.12 | 99 | 1019.1 |
| 20260901125259 | 51 | 104 | 4.0 | 4.0 | 0.07 | 0.11 | 0.11 | 99 | 1019.3 |
| 20260901124754 | 51 | 127 | 2.0 | 3.0 | 0.05 | 0.10 | 0.10 | 99 | 1019.1 |
| 20260901124248 | 51 | 114 | 2.0 | 3.0 | 0.02 | 0.09 | 0.09 | 99 | 1018.9 |
| 20260901123748 | 51 | 106 | 1.0 | 3.0 | 0.00 | 0.09 | 0.09 | 99 | 1018.9 |
| 20260901123243 | 51 | 105 | 2.0 | 4.0 | 0.00 | 0.09 | 0.09 | 99 | 1018.9 |
| 20260901122737 | 51 | 29 | 0.0 | 3.0 | 0.02 | 0.09 | 0.09 | 99 | 1018.9 |
| 20260901122231 | 51 | 101 | 3.0 | 3.0 | 0.02 | 0.09 | 0.09 | 99 | 1019.0 |
| 20260901121725 | 51 | 112 | 2.0 | 3.0 | 0.00 | 0.09 | 0.09 | 99 | 1018.9 |
| 20260901121220 | 52 | 112 | 2.0 | 4.0 | 0.00 | 0.09 | 0.09 | 99 | 1018.8 |
| 20260901120720 | 51 | 129 | 4.0 | 4.0 | 0.02 | 0.09 | 0.09 | 99 | 1019.0 |
| 20260901120215 | 51 | 153 | 3.0 | 4.0 | 0.00 | 0.08 | 0.08 | 99 | 1019.0 |
| 20260901115710 | 52 | 153 | 3.0 | 5.0 | 0.05 | 0.08 | 0.08 | 99 | 1019.0 |
| 20260901115206 | 52 | 152 | 4.0 | 6.0 | 0.05 | 0.08 | 0.08 | 99 | 1019.1 |
| 20260901114702 | 52 | 140 | 4.0 | 5.0 | 0.02 | 0.07 | 0.07 | 99 | 1019.0 |
| 20260901114202 | 52 | 159 | 3.0 | 6.0 | 0.00 | 0.07 | 0.07 | 99 | 1019.1 |
| 20260901113656 | 52 | 150 | 3.0 | 6.0 | 0.00 | 0.07 | 0.07 | 99 | 1019.1 |
| 20260901113151 | 52 | 134 | 4.0 | 4.0 | 0.00 | 0.07 | 0.07 | 99 | 1019.0 |
| 20260901112650 | 52 | 135 | 3.0 | 8.0 | 0.00 | 0.07 | 0.07 | 99 | 1018.9 |
| 20260901112145 | 51 | 159 | 2.0 | 7.0 | 0.00 | 0.07 | 0.07 | 99 | 1018.9 |
| 20260901111644 | 51 | 96 | 1.0 | 5.0 | 0.00 | 0.07 | 0.07 | 99 | 1018.8 |
| 20260901111144 | 51 | 95 | 4.0 | 5.0 | 0.00 | 0.07 | 0.07 | 99 | 1018.9 |
| 20260901110638 | 51 | 90 | 2.0 | 3.0 | 0.00 | 0.07 | 0.07 | 99 | 1018.9 |
| 20260901110134 | 51 | 90 | 0.0 | 4.0 | 0.00 | 0.07 | 0.07 | 99 | 1018.8 |
| 20260901105630 | 51 | 99 | 0.0 | 2.0 | 0.00 | 0.07 | 0.07 | 99 | 1018.9 |
| 20260901105129 | 51 | 109 | 0.0 | 2.0 | 0.00 | 0.07 | 0.07 | 99 | 1018.7 |
| 20260901104626 | 52 | 98 | 0.0 | 2.0 | 0.00 | 0.07 | 0.07 | 99 | 1018.9 |
| 20260901104121 | 52 | 32 | 2.0 | 3.0 | 0.00 | 0.07 | 0.07 | 99 | 1018.8 |
| 20260901103620 | 52 | 90 | 0.0 | 1.0 | 0.00 | 0.07 | 0.07 | 99 | 1018.9 |
| 20260901103116 | 52 | 95 | 0.0 | 2.0 | 0.00 | 0.07 | 0.07 | 99 | 1019.0 |
| 20260901102610 | 52 | 90 | 1.0 | 3.0 | 0.00 | 0.07 | 0.07 | 99 | 1019.1 |
| 20260901102105 | 52 | 103 | 1.0 | 2.0 | 0.00 | 0.07 | 0.07 | 99 | 1019.1 |
| 20260901101601 | 52 | 90 | 0.0 | 0.0 | 0.02 | 0.07 | 0.07 | 99 | 1019.1 |
| 20260901101100 | 52 | 98 | 2.0 | 3.0 | 0.02 | 0.07 | 0.07 | 98 | 1019.3 |
| 20260901100600 | 52 | 95 | 2.0 | 5.0 | 0.05 | 0.07 | 0.07 | 98 | 1019.3 |
| 20260901100054 | 52 | 115 | 2.0 | 2.0 | 0.07 | 0.07 | 0.07 | 97 | 1019.5 |
| 20260901095553 | 53 | 78 | 0.0 | 3.0 | 0.09 | 0.06 | 0.06 | 97 | 1019.5 |
| 20260901095050 | 52 | 81 | 5.0 | 7.0 | 0.07 | 0.05 | 0.05 | 97 | 1019.8 |
| 20260901094546 | 53 | 100 | 4.0 | 5.0 | 0.05 | 0.04 | 0.04 | 97 | 1019.8 |
| 20260901094045 | 53 | 81 | 0.0 | 1.0 | 0.05 | 0.04 | 0.04 | 95 | 1019.6 |
| 20260901093540 | 53 | 49 | 2.0 | 3.0 | 0.07 | 0.04 | 0.04 | 95 | 1019.9 |
| 20260901093035 | 53 | 103 | 2.0 | 3.0 | 0.07 | 0.03 | 0.03 | 94 | 1020.0 |
| 20260901092531 | 54 | 132 | 2.0 | 5.0 | 0.02 | 0.02 | 0.02 | 92 | 1020.0 |
| 20260901092026 | 54 | 139 | 2.0 | 7.0 | 0.05 | 0.02 | 0.02 | 91 | 1019.8 |
| 20260901091522 | 55 | 146 | 4.0 | 6.0 | 0.02 | 0.01 | 0.01 | 89 | 1019.8 |
| 20260901091021 | 55 | 137 | 5.0 | 8.0 | 0.00 | 0.01 | 0.01 | 86 | 1019.8 |
| 20260901090521 | 56 | 137 | 5.0 | 9.0 | 0.00 | 0.01 | 0.01 | 85 | 1019.9 |
| 20260901090017 | 56 | 133 | 5.0 | 8.0 | 0.00 | 0.01 | 0.01 | 83 | 1019.9 |
| 20260901085512 | 56 | 134 | 5.0 | 6.0 | 0.00 | 0.01 | 0.01 | 82 | 1019.9 |
| 20260901085008 | 56 | 120 | 3.0 | 8.0 | 0.00 | 0.01 | 0.01 | 82 | 1019.9 |
| 20260901084504 | 56 | 144 | 4.0 | 7.0 | 0.00 | 0.01 | 0.01 | 82 | 1020.0 |
| 20260901084001 | 56 | 144 | 3.0 | 6.0 | 0.00 | 0.01 | 0.01 | 82 | 1020.1 |
| 20260901083501 | 56 | 117 | 0.0 | 5.0 | 0.00 | 0.01 | 0.01 | 82 | 1019.9 |
| 20260901082958 | 56 | 115 | 2.0 | 4.0 | 0.00 | 0.01 | 0.01 | 82 | 1019.9 |
| 20260901082454 | 56 | 110 | 4.0 | 4.0 | 0.00 | 0.01 | 0.01 | 82 | 1019.9 |
| 20260901081949 | 56 | 97 | 3.0 | 6.0 | 0.00 | 0.01 | 0.01 | 82 | 1019.9 |
| 20260901081443 | 56 | 137 | 4.0 | 5.0 | 0.00 | 0.01 | 0.01 | 83 | 1020.0 |
| 20260901080933 | 56 | 106 | 4.0 | 7.0 | 0.00 | 0.01 | 0.01 | 83 | 1019.9 |
| 20260901080433 | 55 | 87 | 6.0 | 7.0 | 0.00 | 0.01 | 0.01 | 86 | 1019.9 |
| 20260901075932 | 56 | 79 | 4.0 | 6.0 | 0.00 | 0.01 | 0.01 | 85 | 1020.1 |
| 20260901075427 | 55 | 114 | 5.0 | 6.0 | 0.02 | 0.01 | 0.01 | 84 | 1020.1 |
| 20260901074922 | 56 | 90 | 3.0 | 7.0 | 0.02 | 0.01 | 0.01 | 84 | 1020.2 |
| 20260901074416 | 56 | 107 | 5.0 | 8.0 | 0.00 | 0.00 | 0.00 | 82 | 1020.4 |
| 20260901073912 | 55 | 111 | 5.0 | 7.0 | 0.00 | 0.00 | 0.00 | 84 | 1020.6 |
| 20260901073408 | 56 | 137 | 6.0 | 12.0 | 0.00 | 0.00 | 0.00 | 84 | 1020.4 |
| 20260901072903 | 55 | 122 | 6.0 | 7.0 | 0.02 | 0.00 | 0.00 | 85 | 1020.5 |
| 20260901072403 | 55 | 163 | 3.0 | 7.0 | 0.02 | 0.00 | 0.00 | 85 | 1020.5 |
| 20260901071858 | 56 | 150 | 6.0 | 10.0 | 0.00 | 0.00 | 0.00 | 82 | 1020.5 |
| 20260901071357 | 58 | 160 | 7.0 | 10.0 | 0.00 | 0.00 | 0.00 | 76 | 1020.2 |
| 20260901070856 | 59 | 203 | 2.0 | 17.0 | 0.00 | 0.00 | 0.00 | 72 | 1019.9 |
| 20260901070352 | 59 | 212 | 4.0 | 10.0 | 0.00 | 0.00 | 0.00 | 70 | 1019.8 |
| 20260901065850 | 59 | 217 | 5.0 | 11.0 | 0.00 | 0.00 | 0.00 | 70 | 1019.8 |
| 20260901065346 | 59 | 156 | 2.0 | 4.0 | 0.00 | 0.00 | 0.00 | 67 | 1019.5 |
| 20260901064841 | 59 | 195 | 3.0 | 7.0 | 0.00 | 0.00 | 0.00 | 67 | 1019.5 |
| 20260901064338 | 58 | 180 | 5.0 | 5.0 | 0.00 | 0.00 | 0.00 | 69 | 1019.5 |
| 20260901063835 | 58 | 158 | 5.0 | 5.0 | 0.00 | 0.00 | 0.00 | 72 | 1019.5 |
| 20260901063331 | 57 | 157 | 2.0 | 6.0 | 0.00 | 0.00 | 0.00 | 72 | 1019.4 |
| 20260901062826 | 57 | 135 | 3.0 | 8.0 | 0.00 | 0.00 | 0.00 | 73 | 1019.4 |
| 20260901062322 | 57 | 145 | 3.0 | 10.0 | 0.00 | 0.00 | 0.00 | 71 | 1019.3 |
| 20260901061818 | 59 | 180 | 0.0 | 2.0 | 0.00 | 0.00 | 0.00 | 63 | 1018.9 |
| 20260901061313 | 60 | 196 | 3.0 | 4.0 | 0.00 | 0.00 | 0.00 | 59 | 1018.8 |
| 20260901060808 | 60 | 158 | 3.0 | 5.0 | 0.00 | 0.00 | 0.00 | 57 | 1018.5 |
| 20260901060304 | 60 | 239 | 3.0 | 3.0 | 0.00 | 0.00 | 0.00 | 58 | 1018.4 |
| 20260901055758 | 59 | 103 | 4.0 | 4.0 | 0.00 | 0.00 | 0.00 | 59 | 1018.3 |
| 20260901055255 | 60 | 7 | 2.0 | 6.0 | 0.00 | 0.00 | 0.00 | 59 | 1018.4 |
| 20260901054751 | 60 | 22 | 4.0 | 4.0 | 0.00 | 0.00 | 0.00 | 58 | 1017.9 |
| 20260901054248 | 59 | 55 | 2.0 | 5.0 | 0.00 | 0.00 | 0.00 | 60 | 1017.9 |
| 20260901053743 | 59 | 2 | 3.0 | 5.0 | 0.00 | 0.00 | 0.00 | 60 | 1018.3 |
| 20260901053238 | 59 | 70 | 2.0 | 4.0 | 0.00 | 0.00 | 0.00 | 60 | 1018.3 |
| 20260901052734 | 59 | 0 | 5.0 | 6.0 | 0.00 | 0.00 | 0.00 | 61 | 1018.4 |
| 20260901052229 | 58 | 41 | 0.0 | 9.0 | 0.00 | 0.00 | 0.00 | 61 | 1018.5 |
| 20260901051728 | 59 | 14 | 4.0 | 5.0 | 0.00 | 0.00 | 0.00 | 62 | 1018.4 |
| 20260901051223 | 58 | 38 | 3.0 | 4.0 | 0.00 | 0.00 | 0.00 | 62 | 1018.5 |
| 20260901050718 | 58 | 346 | 0.0 | 8.0 | 0.00 | 0.00 | 0.00 | 62 | 1018.8 |
| 20260901050213 | 58 | 90 | 1.0 | 3.0 | 0.00 | 0.00 | 0.00 | 62 | 1018.8 |
| 20260901045708 | 58 | 326 | 0.0 | 2.0 | 0.00 | 0.00 | 0.00 | 63 | 1018.9 |
| 20260901045203 | 58 | 66 | 0.0 | 4.0 | 0.00 | 0.00 | 0.00 | 64 | 1018.8 |
| 20260901044658 | 58 | 0 | 0.0 | 2.0 | 0.00 | 0.00 | 0.00 | 63 | 1018.8 |
| 20260901044154 | 59 | 24 | 2.0 | 3.0 | 0.00 | 0.00 | 0.00 | 63 | 1018.8 |
| 20260901043650 | 60 | 75 | 1.0 | 3.0 | 0.00 | 0.00 | 0.00 | 60 | 1018.8 |
| 20260901043145 | 62 | 81 | 3.0 | 5.0 | 0.00 | 0.00 | 0.00 | 56 | 1019.0 |
| 20260901042644 | 62 | 104 | 3.0 | 5.0 | 0.00 | 0.00 | 0.00 | 56 | 1019.0 |
| 20260901042140 | 62 | 145 | 3.0 | 6.0 | 0.00 | 0.00 | 0.00 | 57 | 1019.0 |
| 20260901041636 | 62 | 151 | 3.0 | 7.0 | 0.00 | 0.00 | 0.00 | 57 | 1019.0 |
| 20260901041130 | 61 | 141 | 3.0 | 5.0 | 0.00 | 0.00 | 0.00 | 57 | 1018.8 |
| 20260901040630 | 61 | 134 | 4.0 | 5.0 | 0.00 | 0.00 | 0.00 | 58 | 1019.0 |
| 20260901040129 | 60 | 145 | 1.0 | 4.0 | 0.00 | 0.00 | 0.00 | 57 | 1019.1 |
| 20260901035628 | 60 | 135 | 0.0 | 4.0 | 0.00 | 0.00 | 0.00 | 57 | 1019.0 |
| 20260901035127 | 59 | 94 | 2.0 | 4.0 | 0.00 | 0.00 | 0.00 | 60 | 1019.1 |
| 20260901034621 | 58 | 120 | 2.0 | 4.0 | 0.00 | 0.00 | 0.00 | 63 | 1019.0 |
| 20260901034115 | 58 | 144 | 2.0 | 4.0 | 0.00 | 0.00 | 0.00 | 62 | 1018.8 |
| 20260901033615 | 59 | 151 | 3.0 | 5.0 | 0.00 | 0.00 | 0.00 | 60 | 1018.9 |
| 20260901033114 | 60 | 166 | 2.0 | 3.0 | 0.00 | 0.00 | 0.00 | 57 | 1018.9 |
| 20260901032613 | 60 | 132 | 2.0 | 3.0 | 0.00 | 0.00 | 0.00 | 57 | 1018.5 |
| 20260901032109 | 59 | 196 | 2.0 | 7.0 | 0.00 | 0.00 | 0.00 | 60 | 1018.7 |
| 20260901031604 | 59 | 55 | 3.0 | 7.0 | 0.00 | 0.00 | 0.00 | 62 | 1018.4 |
| 20260901031100 | 59 | 83 | 1.0 | 6.0 | 0.00 | 0.00 | 0.00 | 63 | 1018.3 |
| 20260901030559 | 59 | 56 | 2.0 | 9.0 | 0.00 | 0.00 | 0.00 | 63 | 1018.3 |
| 20260901030054 | 59 | 90 | 5.0 | 7.0 | 0.00 | 0.00 | 0.00 | 63 | 1018.3 |
| 20260901025548 | 60 | 90 | 6.0 | 8.0 | 0.00 | 0.00 | 0.00 | 62 | 1018.2 |
| 20260901025043 | 60 | 82 | 2.0 | 5.0 | 0.00 | 0.00 | 0.00 | 62 | 1018.1 |
| 20260901024538 | 60 | 90 | 4.0 | 6.0 | 0.00 | 0.00 | 0.00 | 62 | 1017.9 |
| 20260901024037 | 60 | 75 | 4.0 | 5.0 | 0.00 | 0.00 | 0.00 | 61 | 1018.1 |
| 20260901023536 | 60 | 92 | 4.0 | 6.0 | 0.00 | 0.00 | 0.00 | 62 | 1018.2 |
| 20260901023031 | 60 | 66 | 0.0 | 6.0 | 0.00 | 0.00 | 0.00 | 62 | 1017.9 |
| 20260901022526 | 60 | 48 | 2.0 | 5.0 | 0.00 | 0.00 | 0.00 | 63 | 1017.9 |
| 20260901022021 | 60 | 110 | 3.0 | 3.0 | 0.00 | 0.00 | 0.00 | 62 | 1018.1 |
| 20260901021517 | 60 | 26 | 0.0 | 3.0 | 0.00 | 0.00 | 0.00 | 62 | 1017.8 |
| 20260901021012 | 60 | 30 | 2.0 | 4.0 | 0.00 | 0.00 | 0.00 | 63 | 1018.1 |
| 20260901020507 | 59 | 90 | 0.0 | 0.0 | 0.00 | 0.00 | 0.00 | 63 | 1018.1 |
| 20260901020007 | 60 | 90 | 0.0 | 2.0 | 0.00 | 0.00 | 0.00 | 64 | 1018.2 |
| 20260901015503 | 60 | 63 | 0.0 | 3.0 | 0.00 | 0.00 | 0.00 | 64 | 1018.2 |
| 20260901015002 | 59 | 90 | 2.0 | 3.0 | 0.00 | 0.00 | 0.00 | 66 | 1018.2 |
| 20260901014458 | 61 | 97 | 3.0 | 3.0 | 0.00 | 0.00 | 0.00 | 69 | 1018.2 |
| 20260901013954 | 61 | 95 | 2.0 | 2.0 | 0.00 | 0.00 | 0.00 | 67 | 1018.1 |
| 20260901013450 | 62 | 96 | 1.0 | 2.0 | 0.00 | 0.00 | 0.00 | 67 | 1018.1 |
| 20260901012945 | 64 | 96 | 0.0 | 2.0 | 0.00 | 0.00 | 0.00 | 61 | 1018.1 |
| 20260901012445 | 64 | 105 | 1.0 | 3.0 | 0.00 | 0.00 | 0.00 | 60 | 1018.1 |
| 20260901011940 | 67 | 334 | 0.0 | 0.0 | 0.00 | 0.00 | 0.00 | 51 | 1018.2 |
| 20260901011436 | 68 | 334 | 0.0 | 1.0 | 0.00 | 0.00 | 0.00 | 50 | 1018.2 |
| 20260901010934 | 68 | 279 | 0.0 | 1.0 | 0.00 | 0.00 | 0.00 | 50 | 1018.3 |
| 20260901010429 | 69 | 270 | 0.0 | 0.0 | 0.00 | 0.00 | 0.00 | 46 | 1018.2 |
| 20260901005928 | 70 | 294 | 1.0 | 1.0 | 0.00 | 0.00 | 0.00 | 44 | 1018.3 |
| 20260901005424 | 71 | 294 | 0.0 | 2.0 | 0.00 | 0.00 | 0.00 | 41 | 1018.2 |
| 20260901004919 | 72 | 255 | 0.0 | 2.0 | 0.00 | 0.00 | 0.00 | 39 | 1018.3 |
| 20260901004418 | 72 | 251 | 0.0 | 2.0 | 0.00 | 0.00 | 0.00 | 41 | 1018.2 |
| 20260901003913 | 73 | 285 | 0.0 | 3.0 | 0.00 | 0.00 | 0.00 | 41 | 1018.3 |
| 20260901003408 | 73 | 278 | 1.0 | 3.0 | 0.00 | 0.00 | 0.00 | 40 | 1018.3 |
| 20260901002906 | 73 | 270 | 0.0 | 2.0 | 0.00 | 0.00 | 0.00 | 38 | 1018.3 |
| 20260901002401 | 73 | 270 | 1.0 | 3.0 | 0.00 | 0.00 | 0.00 | 39 | 1018.3 |
| 20260901001855 | 73 | 262 | 2.0 | 3.0 | 0.00 | 0.00 | 0.00 | 38 | 1018.2 |
| 20260901001351 | 74 | 334 | 0.0 | 3.0 | 0.00 | 0.00 | 0.00 | 37 | 1018.3 |
| 20260901000846 | 74 | 221 | 0.0 | 4.0 | 0.00 | 0.00 | 0.00 | 35 | 1018.3 |
| 20260901000343 | 74 | 354 | 0.0 | 2.0 | 0.00 | 0.00 | 0.00 | 37 | 1018.2 |
| 20260831235839 | 76 | 0 | 1.0 | 3.0 | 0.00 | 0.00 | 0.00 | 34 | 1018.4 |
| 20260831235336 | 76 | 243 | 1.0 | 5.0 | 0.00 | 0.00 | 0.00 | 34 | 1018.2 |
| 20260831234830 | 75 | 225 | 2.0 | 5.0 | 0.00 | 0.00 | 0.00 | 34 | 1018.3 |
| 20260831234325 | 76 | 270 | 0.0 | 6.0 | 0.00 | 0.00 | 0.00 | 35 | 1018.3 |
| 20260831233820 | 75 | 234 | 0.0 | 6.0 | 0.00 | 0.00 | 0.00 | 35 | 1018.3 |
| 20260831233316 | 76 | 265 | 2.0 | 7.0 | 0.00 | 0.00 | 0.00 | 35 | 1018.2 |
| 20260831232811 | 75 | 0 | 1.0 | 4.0 | 0.00 | 0.00 | 0.00 | 32 | 1018.2 |
| 20260831232307 | 75 | 11 | 0.0 | 3.0 | 0.00 | 0.00 | 0.00 | 36 | 1018.3 |
| 20260831231803 | 77 | 8 | 3.0 | 3.0 | 0.00 | 0.00 | 0.00 | 33 | 1018.2 |
| 20260831231259 | 77 | 180 | 1.0 | 4.0 | 0.00 | 0.00 | 0.00 | 32 | 1018.2 |
| 20260831230754 | 78 | 291 | 6.0 | 6.0 | 0.00 | 0.00 | 0.00 | 32 | 1018.4 |
| 20260831230249 | 77 | 11 | 4.0 | 7.0 | 0.00 | 0.00 | 0.00 | 32 | 1018.2 |
| 20260831225748 | 76 | 267 | 3.0 | 5.0 | 0.00 | 0.00 | 0.00 | 33 | 1018.2 |
| 20260831225244 | 76 | 294 | 3.0 | 9.0 | 0.00 | 0.00 | 0.00 | 32 | 1018.3 |
| 20260831224739 | 76 | 296 | 3.0 | 8.0 | 0.00 | 0.00 | 0.00 | 32 | 1018.2 |
| 20260831224234 | 78 | 225 | 5.0 | 5.0 | 0.00 | 0.00 | 0.00 | 33 | 1018.2 |
| 20260831223729 | 77 | 4 | 2.0 | 6.0 | 0.00 | 0.00 | 0.00 | 32 | 1018.3 |
| 20260831223225 | 78 | 257 | 0.0 | 5.0 | 0.00 | 0.00 | 0.00 | 35 | 1018.3 |
| 20260831222721 | 77 | 286 | 2.0 | 5.0 | 0.00 | 0.00 | 0.00 | 35 | 1018.1 |
| 20260831222217 | 76 | 106 | 3.0 | 5.0 | 0.00 | 0.00 | 0.00 | 32 | 1018.4 |
| 20260831221712 | 76 | 320 | 3.0 | 7.0 | 0.00 | 0.00 | 0.00 | 31 | 1018.3 |
| 20260831221207 | 77 | 267 | 4.0 | 6.0 | 0.00 | 0.00 | 0.00 | 33 | 1018.4 |
| 20260831220702 | 77 | 10 | 2.0 | 7.0 | 0.00 | 0.00 | 0.00 | 33 | 1018.5 |
| 20260831220157 | 77 | 277 | 4.0 | 7.0 | 0.00 | 0.00 | 0.00 | 33 | 1018.5 |
| 20260831215652 | 78 | 216 | 3.0 | 15.0 | 0.00 | 0.00 | 0.00 | 34 | 1018.7 |
| 20260831215148 | 75 | 157 | 5.0 | 9.0 | 0.00 | 0.00 | 0.00 | 33 | 1018.5 |
| 20260831214645 | 78 | 180 | 5.0 | 10.0 | 0.00 | 0.00 | 0.00 | 31 | 1018.8 |
| 20260831214142 | 77 | 201 | 7.0 | 8.0 | 0.00 | 0.00 | 0.00 | 32 | 1018.7 |
| 20260831213637 | 78 | 139 | 2.0 | 4.0 | 0.00 | 0.00 | 0.00 | 32 | 1018.9 |
| 20260831213132 | 75 | 166 | 1.0 | 10.0 | 0.00 | 0.00 | 0.00 | 33 | 1018.9 |
| 20260831212629 | 75 | 174 | 4.0 | 11.0 | 0.00 | 0.00 | 0.00 | 33 | 1018.9 |
| 20260831212125 | 77 | 153 | 6.0 | 11.0 | 0.00 | 0.00 | 0.00 | 33 | 1019.1 |
| 20260831211624 | 77 | 155 | 9.0 | 10.0 | 0.00 | 0.00 | 0.00 | 32 | 1019.1 |
| 20260831211118 | 78 | 178 | 4.0 | 8.0 | 0.00 | 0.00 | 0.00 | 33 | 1019.3 |
| 20260831210613 | 77 | 81 | 2.0 | 7.0 | 0.00 | 0.00 | 0.00 | 33 | 1019.3 |
| 20260831210109 | 76 | 188 | 0.0 | 9.0 | 0.00 | 0.00 | 0.00 | 31 | 1019.5 |
| 20260831205608 | 76 | 195 | 4.0 | 10.0 | 0.00 | 0.00 | 0.00 | 33 | 1019.4 |
| 20260831205104 | 74 | 135 | 3.0 | 9.0 | 0.00 | 0.00 | 0.00 | 33 | 1019.5 |
| 20260831204559 | 76 | 133 | 3.0 | 6.0 | 0.00 | 0.00 | 0.00 | 33 | 1019.6 |
| 20260831204057 | 77 | 180 | 4.0 | 7.0 | 0.00 | 0.00 | 0.00 | 31 | 1019.9 |
| 20260831203552 | 75 | 218 | 7.0 | 8.0 | 0.00 | 0.00 | 0.00 | 33 | 1019.8 |
| 20260831203051 | 75 | 213 | 6.0 | 6.0 | 0.00 | 0.00 | 0.00 | 32 | 1020.0 |
| 20260831202550 | 74 | 154 | 3.0 | 11.0 | 0.00 | 0.00 | 0.00 | 33 | 1019.8 |
| 20260831202050 | 73 | 234 | 4.0 | 6.0 | 0.00 | 0.00 | 0.00 | 32 | 1020.0 |
| 20260831201549 | 74 | 179 | 6.0 | 10.0 | 0.00 | 0.00 | 0.00 | 32 | 1020.4 |
| 20260831201044 | 73 | 249 | 4.0 | 7.0 | 0.00 | 0.00 | 0.00 | 32 | 1020.2 |
| 20260831200540 | 74 | 219 | 3.0 | 7.0 | 0.00 | 0.00 | 0.00 | 31 | 1020.4 |
| 20260831200035 | 73 | 236 | 5.0 | 12.0 | 0.00 | 0.00 | 0.00 | 34 | 1020.4 |
| 20260831195531 | 73 | 215 | 1.0 | 9.0 | 0.00 | 0.00 | 0.00 | 32 | 1020.5 |
| 20260831195025 | 73 | 240 | 3.0 | 8.0 | 0.00 | 0.00 | 0.00 | 34 | 1020.2 |
| 20260831194520 | 73 | 180 | 2.0 | 5.0 | 0.00 | 0.00 | 0.00 | 33 | 1020.4 |
| 20260831194020 | 74 | 216 | 4.0 | 5.0 | 0.00 | 0.00 | 0.00 | 34 | 1020.2 |
| 20260831193510 | 72 | 201 | 8.0 | 10.0 | 0.00 | 0.00 | 0.00 | 31 | 1020.4 |
| 20260831193005 | 73 | 166 | 4.0 | 8.0 | 0.00 | 0.00 | 0.00 | 35 | 1020.5 |
| 20260831192500 | 72 | 180 | 6.0 | 8.0 | 0.00 | 0.00 | 0.00 | 32 | 1020.6 |
| 20260831191954 | 72 | 209 | 3.0 | 17.0 | 0.00 | 0.00 | 0.00 | 34 | 1020.6 |
| 20260831191451 | 72 | 197 | 5.0 | 10.0 | 0.00 | 0.00 | 0.00 | 32 | 1020.7 |
| 20260831190947 | 73 | 150 | 4.0 | 6.0 | 0.00 | 0.00 | 0.00 | 34 | 1020.8 |
| 20260831190442 | 72 | 154 | 9.0 | 10.0 | 0.00 | 0.00 | 0.00 | 32 | 1020.8 |
| 20260831185940 | 72 | 242 | 5.0 | 10.0 | 0.00 | 0.00 | 0.00 | 31 | 1020.7 |
| 20260831185437 | 73 | 175 | 2.0 | 7.0 | 0.00 | 0.00 | 0.00 | 34 | 1020.7 |
| 20260831184936 | 71 | 190 | 7.0 | 11.0 | 0.00 | 0.00 | 0.00 | 34 | 1020.8 |
| 20260831184431 | 71 | 211 | 3.0 | 10.0 | 0.00 | 0.00 | 0.00 | 34 | 1020.8 |
| 20260831183927 | 72 | 161 | 5.0 | 13.0 | 0.00 | 0.00 | 0.00 | 34 | 1021.1 |
| 20260831183426 | 70 | 246 | 4.0 | 14.0 | 0.00 | 0.00 | 0.00 | 35 | 1021.0 |
| 20260831182925 | 70 | 145 | 8.0 | 11.0 | 0.00 | 0.00 | 0.00 | 34 | 1021.1 |
| 20260831182421 | 70 | 232 | 11.0 | 14.0 | 0.00 | 0.00 | 0.00 | 35 | 1021.2 |
| 20260831181916 | 71 | 214 | 3.0 | 11.0 | 0.00 | 0.00 | 0.00 | 36 | 1021.1 |
| 20260831181411 | 70 | 196 | 7.0 | 14.0 | 0.00 | 0.00 | 0.00 | 35 | 1021.3 |
| 20260831180906 | 70 | 214 | 5.0 | 13.0 | 0.00 | 0.00 | 0.00 | 37 | 1021.2 |
| 20260831180400 | 70 | 221 | 5.0 | 12.0 | 0.00 | 0.00 | 0.00 | 37 | 1021.2 |
| 20260831175859 | 70 | 252 | 4.0 | 13.0 | 0.00 | 0.00 | 0.00 | 36 | 1021.1 |
| 20260831175356 | 70 | 202 | 8.0 | 15.0 | 0.00 | 0.00 | 0.00 | 37 | 1021.2 |
| 20260831174852 | 70 | 210 | 7.0 | 13.0 | 0.00 | 0.00 | 0.00 | 36 | 1021.1 |
| 20260831174347 | 70 | 204 | 7.0 | 11.0 | 0.00 | 0.00 | 0.00 | 35 | 1021.0 |
| 20260831173846 | 70 | 261 | 4.0 | 6.0 | 0.00 | 0.00 | 0.00 | 34 | 1020.8 |
| 20260831173340 | 69 | 210 | 7.0 | 14.0 | 0.00 | 0.00 | 0.00 | 36 | 1021.2 |
| 20260831172835 | 70 | 163 | 7.0 | 11.0 | 0.00 | 0.00 | 0.00 | 32 | 1020.7 |
| 20260831172331 | 70 | 210 | 9.0 | 9.0 | 0.00 | 0.00 | 0.00 | 34 | 1021.0 |
| 20260831171830 | 68 | 237 | 7.0 | 10.0 | 0.00 | 0.00 | 0.00 | 33 | 1020.8 |
| 20260831171327 | 68 | 216 | 2.0 | 10.0 | 0.00 | 0.00 | 0.00 | 33 | 1020.8 |
| 20260831170824 | 68 | 199 | 5.0 | 9.0 | 0.00 | 0.00 | 0.00 | 31 | 1020.6 |
| 20260831170320 | 67 | 206 | 6.0 | 15.0 | 0.00 | 0.00 | 0.00 | 32 | 1020.6 |
| 20260831165816 | 68 | 220 | 5.0 | 8.0 | 0.00 | 0.00 | 0.00 | 31 | 1020.5 |
| 20260831165312 | 68 | 230 | 4.0 | 7.0 | 0.00 | 0.00 | 0.00 | 31 | 1020.6 |
| 20260831164808 | 68 | 169 | 5.0 | 12.0 | 0.00 | 0.00 | 0.00 | 31 | 1020.6 |
| 20260831164304 | 68 | 228 | 9.0 | 10.0 | 0.00 | 0.00 | 0.00 | 30 | 1020.7 |
| 20260831163759 | 67 | 201 | 5.0 | 8.0 | 0.00 | 0.00 | 0.00 | 31 | 1020.6 |
| 20260831163255 | 66 | 222 | 5.0 | 11.0 | 0.00 | 0.00 | 0.00 | 29 | 1020.6 |
| 20260831162753 | 67 | 216 | 7.0 | 11.0 | 0.00 | 0.00 | 0.00 | 31 | 1020.5 |
| 20260831162248 | 66 | 219 | 5.0 | 12.0 | 0.00 | 0.00 | 0.00 | 29 | 1020.2 |
| 20260831161742 | 66 | 168 | 4.0 | 7.0 | 0.00 | 0.00 | 0.00 | 31 | 1020.5 |
| 20260831161238 | 66 | 191 | 4.0 | 9.0 | 0.00 | 0.00 | 0.00 | 31 | 1020.5 |
| 20260831160738 | 66 | 211 | 5.0 | 7.0 | 0.00 | 0.00 | 0.00 | 28 | 1020.5 |
| 20260831160228 | 67 | 232 | 4.0 | 4.0 | 0.00 | 0.00 | 0.00 | 31 | 1020.5 |
| 20260831155727 | 66 | 246 | 0.0 | 4.0 | 0.00 | 0.00 | 0.00 | 30 | 1020.5 |
| 20260831155223 | 66 | 209 | 1.0 | 3.0 | 0.00 | 0.00 | 0.00 | 29 | 1020.2 |
| 20260831154718 | 65 | 294 | 0.0 | 5.0 | 0.00 | 0.00 | 0.00 | 34 | 1020.4 |
| 20260831154209 | 64 | 192 | 0.0 | 3.0 | 0.00 | 0.00 | 0.00 | 34 | 1020.2 |
| 20260831153707 | 63 | 352 | 0.0 | 3.0 | 0.00 | 0.00 | 0.00 | 34 | 1020.2 |
| 20260831153203 | 64 | 99 | 0.0 | 4.0 | 0.00 | 0.00 | 0.00 | 32 | 1020.4 |
| 20260831152659 | 64 | 101 | 3.0 | 4.0 | 0.00 | 0.00 | 0.00 | 38 | 1020.2 |
| 20260831152154 | 63 | 110 | 0.0 | 3.0 | 0.00 | 0.00 | 0.00 | 41 | 1020.4 |
| 20260831151654 | 61 | 96 | 2.0 | 3.0 | 0.00 | 0.00 | 0.00 | 42 | 1020.2 |
| 20260831151143 | 60 | 103 | 2.0 | 6.0 | 0.00 | 0.00 | 0.00 | 37 | 1020.2 |
| 20260831150638 | 59 | 101 | 5.0 | 7.0 | 0.00 | 0.00 | 0.00 | 41 | 1020.2 |
| 20260831150133 | 58 | 78 | 0.0 | 6.0 | 0.00 | 0.00 | 0.00 | 44 | 1020.4 |
| 20260831145627 | 57 | 98 | 3.0 | 8.0 | 0.00 | 0.00 | 0.00 | 45 | 1020.1 |